| time (UTC) | temp F | wind direction | speed MPH | gust MPH | rain 1hr in | rain 24hr in | rain mn in | humidity % | barometer mb |
| 20260504002704 | 62 | 341 | 10.0 | 22.0 | 0.00 | 0.01 | 0.00 | 65 | 1007.4 |
| 20260504001804 | 62 | 336 | 10.0 | 24.0 | 0.00 | 0.02 | 0.00 | 66 | 1007.5 |
| 20260504000904 | 61 | 334 | 11.0 | 23.0 | 0.00 | 0.02 | 0.00 | 66 | 1007.4 |
| 20260504000005 | 61 | 345 | 11.0 | 21.0 | 0.00 | 0.02 | 0.00 | 67 | 1007.4 |
| 20260503235404 | 61 | 339 | 9.0 | 18.0 | 0.00 | 0.02 | 0.00 | 66 | 1007.6 |
| 20260503234504 | 61 | 332 | 9.0 | 22.0 | 0.00 | 0.02 | 0.00 | 67 | 1007.6 |
| 20260503233604 | 61 | 335 | 7.0 | 17.0 | 0.00 | 0.03 | 0.00 | 68 | 1007.7 |
| 20260503232725 | 61 | 326 | 9.0 | 18.0 | 0.00 | 0.05 | 0.00 | 69 | 1007.7 |
| 20260503231805 | 60 | 346 | 7.0 | 16.0 | 0.00 | 0.05 | 0.00 | 71 | 1007.9 |
| 20260503230926 | 59 | 1 | 7.0 | 16.0 | 0.00 | 0.05 | 0.00 | 72 | 1007.8 |
| 20260503230006 | 59 | 6 | 7.0 | 14.0 | 0.00 | 0.05 | 0.00 | 73 | 1008.0 |
| 20260503225404 | 59 | 4 | 7.0 | 16.0 | 0.00 | 0.05 | 0.00 | 73 | 1007.9 |
| 20260503224525 | 58 | 359 | 8.0 | 14.0 | 0.00 | 0.05 | 0.00 | 74 | 1007.9 |
| 20260503223604 | 58 | 358 | 6.0 | 12.0 | 0.00 | 0.05 | 0.00 | 74 | 1008.0 |
| 20260503222704 | 57 | 359 | 5.0 | 12.0 | 0.00 | 0.05 | 0.00 | 76 | 1008.0 |
| 20260503221804 | 56 | 359 | 5.0 | 12.0 | 0.00 | 0.05 | 0.00 | 77 | 1008.0 |
| 20260503220925 | 55 | 359 | 5.0 | 11.0 | 0.00 | 0.05 | 0.00 | 79 | 1008.1 |
| 20260503220005 | 55 | 3 | 5.0 | 11.0 | 0.00 | 0.05 | 0.00 | 80 | 1008.1 |
| 20260503215405 | 54 | 5 | 4.0 | 9.0 | 0.00 | 0.05 | 0.00 | 81 | 1007.9 |
| 20260503214504 | 54 | 10 | 4.0 | 9.0 | 0.00 | 0.05 | 0.00 | 82 | 1008.0 |
| 20260503213604 | 53 | 3 | 3.0 | 8.0 | 0.00 | 0.05 | 0.00 | 83 | 1008.0 |
| 20260503212704 | 53 | 9 | 3.0 | 8.0 | 0.00 | 0.05 | 0.00 | 83 | 1007.9 |
| 20260503211825 | 54 | 11 | 3.0 | 7.0 | 0.00 | 0.05 | 0.00 | 83 | 1007.8 |
| 20260503210905 | 54 | 8 | 4.0 | 8.0 | 0.00 | 0.05 | 0.00 | 83 | 1007.8 |
| 20260503210005 | 54 | 7 | 5.0 | 10.0 | 0.00 | 0.05 | 0.00 | 83 | 1007.8 |
| 20260503205426 | 54 | 8 | 5.0 | 10.0 | 0.00 | 0.05 | 0.00 | 83 | 1007.5 |
| 20260503204504 | 54 | 3 | 5.0 | 11.0 | 0.00 | 0.05 | 0.00 | 83 | 1007.5 |
| 20260503203604 | 54 | 4 | 4.0 | 11.0 | 0.00 | 0.05 | 0.00 | 83 | 1007.6 |
| 20260503202704 | 54 | 7 | 5.0 | 11.0 | 0.00 | 0.05 | 0.00 | 83 | 1007.4 |
| 20260503201804 | 54 | 11 | 5.0 | 12.0 | 0.00 | 0.05 | 0.00 | 82 | 1007.5 |
| 20260503200925 | 54 | 360 | 4.0 | 9.0 | 0.00 | 0.05 | 0.00 | 82 | 1007.5 |
| 20260503200004 | 54 | 4 | 4.0 | 8.0 | 0.00 | 0.05 | 0.00 | 82 | 1007.5 |
| 20260503195404 | 54 | 8 | 3.0 | 9.0 | 0.00 | 0.05 | 0.00 | 82 | 1007.5 |
| 20260503194504 | 54 | 3 | 5.0 | 11.0 | 0.00 | 0.05 | 0.00 | 82 | 1007.5 |
| 20260503193605 | 54 | 4 | 6.0 | 12.0 | 0.00 | 0.05 | 0.00 | 82 | 1007.5 |
| 20260503192704 | 54 | 3 | 5.0 | 10.0 | 0.00 | 0.05 | 0.00 | 82 | 1007.6 |
| 20260503191804 | 54 | 9 | 3.0 | 8.0 | 0.00 | 0.05 | 0.00 | 82 | 1007.6 |
| 20260503190904 | 54 | 20 | 3.0 | 8.0 | 0.00 | 0.05 | 0.00 | 82 | 1007.8 |
| 20260503190026 | 54 | 17 | 4.0 | 9.0 | 0.00 | 0.05 | 0.00 | 82 | 1007.8 |
| 20260503185425 | 54 | 14 | 5.0 | 10.0 | 0.00 | 0.05 | 0.00 | 82 | 1007.7 |
| 20260503184525 | 54 | 13 | 6.0 | 14.0 | 0.00 | 0.05 | 0.00 | 82 | 1007.8 |
| 20260503183625 | 54 | 16 | 6.0 | 11.0 | 0.00 | 0.05 | 0.00 | 83 | 1007.7 |
| 20260503182725 | 54 | 22 | 5.0 | 9.0 | 0.00 | 0.05 | 0.00 | 83 | 1007.9 |
| 20260503181825 | 54 | 22 | 5.0 | 10.0 | 0.00 | 0.05 | 0.00 | 84 | 1007.8 |
| 20260503180904 | 54 | 21 | 6.0 | 10.0 | 0.00 | 0.05 | 0.00 | 84 | 1007.9 |
| 20260503180005 | 54 | 19 | 7.0 | 14.0 | 0.00 | 0.05 | 0.00 | 84 | 1008.0 |
| 20260503175404 | 54 | 17 | 7.0 | 14.0 | 0.00 | 0.05 | 0.00 | 84 | 1008.0 |
| 20260503174504 | 54 | 16 | 6.0 | 12.0 | 0.00 | 0.05 | 0.00 | 85 | 1008.1 |
| 20260503173604 | 54 | 16 | 5.0 | 12.0 | 0.00 | 0.05 | 0.00 | 85 | 1008.2 |
| 20260503172705 | 54 | 19 | 5.0 | 12.0 | 0.00 | 0.05 | 0.00 | 85 | 1008.3 |
| 20260503171804 | 54 | 12 | 5.0 | 9.0 | 0.00 | 0.05 | 0.00 | 85 | 1008.5 |
| 20260503170926 | 54 | 16 | 5.0 | 10.0 | 0.00 | 0.05 | 0.00 | 85 | 1008.6 |
| 20260503150904 | 55 | 13 | 3.0 | 9.0 | 0.00 | 0.05 | 0.00 | 83 | 1008.9 |
| 20260503130904 | 57 | 17 | 2.0 | 5.0 | 0.00 | 0.05 | 0.05 | 81 | 1009.3 |
| 20260503080904 | 62 | 2 | 2.0 | 5.0 | 0.00 | 0.05 | 0.05 | 67 | 1008.2 |
| 20260503072705 | 64 | 342 | 2.0 | 6.0 | 0.00 | 0.05 | 0.05 | 62 | 1008.1 |
| 20260503071825 | 64 | 328 | 2.0 | 8.0 | 0.00 | 0.05 | 0.05 | 62 | 1008.0 |
| 20260503070905 | 65 | 317 | 3.0 | 9.0 | 0.00 | 0.05 | 0.05 | 61 | 1007.8 |
| 20260503054505 | 70 | 293 | 5.0 | 15.0 | 0.00 | 0.05 | 0.05 | 49 | 1007.7 |
| 20260503053604 | 70 | 312 | 4.0 | 15.0 | 0.00 | 0.05 | 0.05 | 46 | 1007.6 |
| 20260503052705 | 70 | 305 | 4.0 | 12.0 | 0.00 | 0.05 | 0.05 | 48 | 1007.4 |
| 20260503051825 | 69 | 310 | 4.0 | 11.0 | 0.00 | 0.05 | 0.05 | 51 | 1007.5 |
| 20260503050904 | 67 | 310 | 3.0 | 8.0 | 0.00 | 0.05 | 0.05 | 62 | 1007.4 |
| 20260503050005 | 66 | 323 | 3.0 | 10.0 | 0.00 | 0.05 | 0.05 | 66 | 1007.4 |
| 20260503045405 | 66 | 321 | 2.0 | 8.0 | 0.00 | 0.05 | 0.05 | 69 | 1007.3 |
| 20260503044526 | 66 | 338 | 3.0 | 10.0 | 0.00 | 0.05 | 0.05 | 71 | 1007.4 |
| 20260503043604 | 66 | 338 | 4.0 | 10.0 | 0.00 | 0.05 | 0.05 | 71 | 1007.4 |
| 20260503042704 | 66 | 326 | 5.0 | 11.0 | 0.00 | 0.05 | 0.05 | 71 | 1007.3 |
| 20260503041804 | 66 | 319 | 4.0 | 13.0 | 0.00 | 0.05 | 0.05 | 72 | 1007.1 |
| 20260503040904 | 65 | 316 | 2.0 | 6.0 | 0.00 | 0.05 | 0.05 | 74 | 1007.2 |
| 20260503040004 | 65 | 308 | 3.0 | 8.0 | 0.00 | 0.05 | 0.05 | 74 | 1007.3 |
| 20260503035404 | 65 | 298 | 3.0 | 9.0 | 0.00 | 0.05 | 0.05 | 75 | 1007.3 |
| 20260503034505 | 65 | 293 | 3.0 | 9.0 | 0.00 | 0.05 | 0.05 | 76 | 1007.5 |
| 20260503033604 | 65 | 300 | 2.0 | 8.0 | 0.00 | 0.05 | 0.05 | 76 | 1007.5 |
| 20260503032704 | 65 | 294 | 4.0 | 10.0 | 0.00 | 0.05 | 0.05 | 75 | 1007.5 |
| 20260503031825 | 65 | 289 | 3.0 | 9.0 | 0.00 | 0.05 | 0.05 | 76 | 1007.3 |
| 20260503030925 | 65 | 288 | 2.0 | 8.0 | 0.00 | 0.05 | 0.05 | 78 | 1007.4 |
| 20260503030004 | 65 | 287 | 3.0 | 10.0 | 0.00 | 0.05 | 0.05 | 78 | 1007.5 |
| 20260503025404 | 65 | 292 | 3.0 | 8.0 | 0.00 | 0.05 | 0.05 | 78 | 1007.5 |
| 20260503024504 | 65 | 300 | 4.0 | 13.0 | 0.00 | 0.05 | 0.05 | 77 | 1007.7 |
| 20260503023605 | 66 | 310 | 6.0 | 14.0 | 0.00 | 0.05 | 0.05 | 76 | 1007.6 |
| 20260503022704 | 67 | 348 | 8.0 | 19.0 | 0.00 | 0.05 | 0.05 | 81 | 1007.5 |
| 20260503021805 | 67 | 351 | 6.0 | 12.0 | 0.01 | 0.05 | 0.05 | 83 | 1007.2 |
| 20260503020925 | 67 | 354 | 6.0 | 14.0 | 0.01 | 0.05 | 0.05 | 83 | 1007.4 |
| 20260503020005 | 66 | 1 | 7.0 | 14.0 | 0.01 | 0.05 | 0.05 | 84 | 1007.4 |
| 20260503015404 | 66 | 2 | 7.0 | 15.0 | 0.01 | 0.05 | 0.05 | 84 | 1007.4 |
| 20260503014505 | 66 | 359 | 6.0 | 13.0 | 0.01 | 0.05 | 0.05 | 85 | 1007.4 |
| 20260503013604 | 65 | 9 | 6.0 | 13.0 | 0.01 | 0.05 | 0.05 | 86 | 1007.3 |
| 20260503012704 | 65 | 6 | 6.0 | 15.0 | 0.01 | 0.05 | 0.05 | 86 | 1007.3 |
| 20260503011804 | 65 | 10 | 7.0 | 19.0 | 0.01 | 0.04 | 0.04 | 86 | 1007.3 |
| 20260503010904 | 65 | 5 | 8.0 | 19.0 | 0.01 | 0.04 | 0.04 | 87 | 1007.6 |
| 20260503010004 | 64 | 5 | 8.0 | 19.0 | 0.01 | 0.04 | 0.04 | 88 | 1007.6 |
| 20260503005404 | 64 | 1 | 9.0 | 19.0 | 0.02 | 0.04 | 0.04 | 88 | 1007.5 |
| 20260503004525 | 64 | 5 | 9.0 | 18.0 | 0.02 | 0.04 | 0.04 | 88 | 1007.5 |
| 20260503003625 | 64 | 11 | 9.0 | 18.0 | 0.02 | 0.04 | 0.04 | 89 | 1007.4 |